Location: Agadir-Ikarkaouin
(31.1503°N, 9.0246°W)
Time: 03:32:44
(UTC+00:00)

Cosmos 1943 - Pass Details

Date: 18 September 2020
Orbit: 833 x 850 km, 71.0° (Epoch: 23 October)

Event Time Altitude Azimuth Distance (km) Brightness Sun altitude
Rises 19:48:28 0° 343° (NNW) 3,396 6.8 -15.9°
Reaches altitude 10° 19:50:56 10° 345° (NNW) 2,461 6.0 -16.4°
Maximum altitude 19:56:34 70° 69° (ENE) 895 3.1 -17.6°
Enters shadow 20:00:43 19° 150° (SSE) 1,916 4.7 -18.5°
